Weather History for K04V - October, 2012

Change the Weather History Date:

Thursday, October 4, 2012

  Actual Average (KALS) Record (KALS)
Temperature  
Mean Temperature 54 °F 48 °F  
Max Temperature 71 °F 67 °F 77 °F (1987)
Min Temperature 37 °F 29 °F 17 °F (1986)
Degree Days  
Heating Degree Days 11 17  
Month to date heating degree days 66  
Since 1 July heating degree days 497  
Cooling Degree Days 0 0  
Month to date cooling degree days 0  
Year to date cooling degree days 51  
Growing Degree Days 4 (Base 50)    
Moisture  
Dew Point 22 °F    
Average Humidity 30    
Maximum Humidity 49    
Minimum Humidity 14    
Precipitation  
Precipitation 0.00 in 0.02 in 0.49 in (1984)
Month to date precipitation 0.09  
Year to date precipitation 5.95  
Snow  
Snow 0.00 in 0.00 in 0.00 in (2002)
Month to date snowfall 0.1  
Since 1 July snowfall 0.1  
Since 1 September snowfall 0.1  
Snow Depth -    
Sea Level Pressure  
Sea Level Pressure 30.23 in    
Wind  
Wind Speed 8 mph (NNW)    
Max Wind Speed 20 mph    
Max Gust Speed 34 mph    
Visibility 10 miles    
Events      
T = Trace of Precipitation, MM = Missing Value Source: NWS Daily Summary

Daily Weather History Graph

Daily Weather History Graph

Search for Another Location

Airport or City:

Trip Planner

Search our weather history database for the weather conditions in past years. The results will help you decide how hot, cold, wet, or windy it might be!

Date:

Astronomy

Oct. 04, 2012 Rise Set
Actual Time 7:03 AM MDT 6:42 PM MDT
Civil Twilight 6:37 AM MDT 7:08 PM MDT
Nautical Twilight 6:06 AM MDT 7:38 PM MDT
Astronomical Twilight 5:36 AM MDT 8:09 PM MDT
Moon 9:24 PM MDT (10/4) 11:18 AM MDT (10/4)
Length of Visible Light 12h 31m
Length of Day
11h 38m
Waning Gibbous, 81% of the Moon is Illuminated
Oct 4
Waning Gibbous
Oct 8
Last Quarter
Oct 15
New
Oct 21
First Quarter
Oct 29
Full

Hourly Weather History & Observations

Time (MDT) Temp. Windchill Dew Point Humidity Pressure Visibility Wind Dir Wind Speed Gust Speed Precip Events Conditions
12:06 AM 46.4 °F 43.5 °F 15.8 °F 29% 30.25 in 10.0 mi North 5.8 mph - N/A   Clear
12:26 AM 46.4 °F 41.5 °F 15.8 °F 29% 30.26 in 10.0 mi North 10.4 mph - N/A   Clear
12:46 AM 46.4 °F 42.4 °F 15.8 °F 29% 30.26 in 10.0 mi North 8.1 mph - N/A   Clear
1:05 AM 44.6 °F 40.2 °F 15.8 °F 31% 30.26 in 10.0 mi NNW 8.1 mph - N/A   Clear
1:26 AM 44.6 °F 40.7 °F 15.8 °F 31% 30.26 in 10.0 mi NNW 6.9 mph - N/A   Clear
1:44 AM 46.4 °F 42.9 °F 17.6 °F 32% 30.26 in 10.0 mi West 6.9 mph - N/A   Clear
2:05 AM 42.8 °F 36.6 °F 17.6 °F 36% 30.27 in 10.0 mi NW 11.5 mph - N/A   Clear
2:25 AM 42.8 °F 37.5 °F 19.4 °F 39% 30.26 in 10.0 mi NNW 9.2 mph - N/A   Clear
2:46 AM 46.4 °F 44.3 °F 15.8 °F 29% 30.27 in 10.0 mi NE 4.6 mph - N/A   Clear
3:05 AM 42.8 °F - 15.8 °F 34% 30.27 in 10.0 mi Calm Calm - N/A   Clear
3:25 AM 39.2 °F 32.5 °F 17.6 °F 42% 30.27 in 10.0 mi NW 10.4 mph - N/A   Clear
3:44 AM 41.0 °F 34.7 °F 19.4 °F 42% 30.26 in 10.0 mi NW 10.4 mph - N/A   Clear
4:05 AM 42.8 °F 38.6 °F 19.4 °F 39% 30.27 in 10.0 mi NW 6.9 mph - N/A   Clear
4:24 AM 42.8 °F 39.3 °F 19.4 °F 39% 30.27 in 10.0 mi NNW 5.8 mph - N/A   Clear
4:45 AM 42.8 °F 36.6 °F 19.4 °F 39% 30.27 in 10.0 mi NNW 11.5 mph - N/A   Clear
5:15 AM 42.8 °F 38.0 °F 21.2 °F 42% 30.28 in 10.0 mi North 8.1 mph - N/A   Clear
5:32 AM 42.8 °F 37.0 °F 19.4 °F 39% 30.28 in 10.0 mi NW 10.4 mph - N/A   Clear
5:45 AM 41.0 °F 35.2 °F 19.4 °F 42% 30.28 in 10.0 mi NNW 9.2 mph - N/A   Clear
6:03 AM 39.2 °F 32.5 °F 21.2 °F 49% 30.28 in 10.0 mi NNW 10.4 mph - N/A   Clear
6:26 AM 37.4 °F 30.8 °F 19.4 °F 48% 30.29 in 10.0 mi NNW 9.2 mph - N/A   Clear
6:46 AM 37.4 °F 32.1 °F 19.4 °F 48% 30.29 in 10.0 mi North 6.9 mph - N/A   Clear
7:05 AM 41.0 °F 36.4 °F 21.2 °F 45% 30.29 in 10.0 mi NNW 6.9 mph - N/A   Clear
7:26 AM 37.4 °F 30.8 °F 19.4 °F 48% 30.29 in 10.0 mi NNW 9.2 mph - N/A   Clear
7:49 AM 41.0 °F 36.4 °F 21.2 °F 45% 30.29 in 10.0 mi NNW 6.9 mph - N/A   Clear
8:04 AM 44.6 °F 40.7 °F 21.2 °F 39% 30.29 in 10.0 mi NNW 6.9 mph - N/A   Clear
8:24 AM 46.4 °F 42.9 °F 21.2 °F 37% 30.29 in 10.0 mi NW 6.9 mph - N/A   Clear
8:46 AM 50.0 °F - 21.2 °F 32% 30.29 in 10.0 mi NW 10.4 mph - N/A   Clear
9:05 AM 53.6 °F - 23.0 °F 30% 30.29 in 10.0 mi NW 6.9 mph - N/A   Clear
9:27 AM 55.4 °F - 21.2 °F 26% 30.29 in 10.0 mi Calm Calm - N/A   Clear
9:52 AM 59.0 °F - 23.0 °F 25% 30.29 in 10.0 mi SSE 3.5 mph - N/A   Clear
10:05 AM 59.0 °F - 23.0 °F 25% 30.29 in 10.0 mi South 4.6 mph - N/A   Clear
10:30 AM 59.0 °F - 23.0 °F 25% 30.29 in 10.0 mi South 5.8 mph - N/A   Clear
10:45 AM 59.0 °F - 23.0 °F 25% 30.29 in 10.0 mi SSE 6.9 mph - N/A   Clear
11:15 AM 60.8 °F - 24.8 °F 25% 30.28 in 10.0 mi South 6.9 mph - N/A   Clear
11:24 AM 60.8 °F - 24.8 °F 25% 30.28 in 10.0 mi SE 6.9 mph - N/A   Clear
11:52 AM 62.6 °F - 23.0 °F 22% 30.26 in 10.0 mi SSE 10.4 mph - N/A   Scattered Clouds
12:25 PM 64.4 °F - 23.0 °F 21% 30.25 in 10.0 mi South 8.1 mph - N/A   Mostly Cloudy
12:55 PM 62.6 °F - 24.8 °F 24% 30.22 in 10.0 mi ESE 6.9 mph - N/A   Mostly Cloudy
1:05 PM 64.4 °F - 24.8 °F 22% 30.22 in 10.0 mi Calm Calm - N/A   Mostly Cloudy
1:27 PM 64.4 °F - 24.8 °F 22% 30.20 in 10.0 mi Calm Calm - N/A   Mostly Cloudy
1:52 PM 66.2 °F - 23.0 °F 19% 30.18 in 10.0 mi NNE 5.8 mph - N/A   Mostly Cloudy
2:12 PM 66.2 °F - 23.0 °F 19% 30.17 in 10.0 mi Calm Calm - N/A   Scattered Clouds
2:26 PM 68.0 °F - 23.0 °F 18% 30.17 in 10.0 mi West 3.5 mph - N/A   Scattered Clouds
2:52 PM 71.6 °F - 24.8 °F 17% 30.16 in 10.0 mi Calm Calm - N/A   Scattered Clouds
3:12 PM 68.0 °F - 21.2 °F 17% 30.16 in 10.0 mi NW 6.9 mph - N/A   Overcast
3:32 PM 69.8 °F - 21.2 °F 16% 30.15 in 10.0 mi WNW 18.4 mph 23.0 mph N/A   Overcast
3:46 PM 69.8 °F - 21.2 °F 16% 30.15 in 10.0 mi West 12.7 mph 34.5 mph N/A   Mostly Cloudy
4:15 PM 69.8 °F - 19.4 °F 15% 30.14 in 10.0 mi NW 12.7 mph 16.1 mph N/A   Mostly Cloudy
4:31 PM 71.6 °F - 19.4 °F 14% 30.14 in 10.0 mi NW 13.8 mph 23.0 mph N/A   Mostly Cloudy
4:46 PM 68.0 °F - 17.6 °F 15% 30.14 in 10.0 mi NW 16.1 mph 24.2 mph N/A   Mostly Cloudy
5:14 PM 68.0 °F - 17.6 °F 15% 30.16 in 10.0 mi NW 15.0 mph 32.2 mph N/A   Mostly Cloudy
5:24 PM 68.0 °F - 17.6 °F 15% 30.16 in 10.0 mi WNW 12.7 mph - N/A   Overcast
5:45 PM 66.2 °F - 19.4 °F 17% 30.15 in 10.0 mi NW 10.4 mph - N/A   Scattered Clouds
6:07 PM 66.2 °F - 19.4 °F 17% 30.15 in 10.0 mi NW 9.2 mph - N/A   Scattered Clouds
6:25 PM 64.4 °F - 21.2 °F 19% 30.17 in 10.0 mi North 19.6 mph 29.9 mph N/A   Mostly Cloudy
6:46 PM 62.6 °F - 24.8 °F 24% 30.17 in 10.0 mi North 15.0 mph 19.6 mph N/A   Overcast
7:06 PM 62.6 °F - 24.8 °F 24% 30.19 in 10.0 mi NNW 18.4 mph - N/A   Overcast
7:25 PM 60.8 °F - 24.8 °F 25% 30.19 in 10.0 mi North 4.6 mph - N/A   Scattered Clouds
7:45 PM 59.0 °F - 24.8 °F 27% 30.18 in 10.0 mi North 8.1 mph - N/A   Scattered Clouds
8:11 PM 60.8 °F - 26.6 °F 27% 30.19 in 10.0 mi North 10.4 mph - N/A   Overcast
8:26 PM 60.8 °F - 26.6 °F 27% 30.19 in 10.0 mi NNW 17.3 mph - N/A   Overcast
8:45 PM 59.0 °F - 26.6 °F 29% 30.19 in 10.0 mi North 10.4 mph - N/A   Mostly Cloudy
9:04 PM 59.0 °F - 30.2 °F 34% 30.19 in 10.0 mi Calm Calm - N/A   Clear
9:24 PM 55.4 °F - 28.4 °F 36% 30.19 in 10.0 mi NW 3.5 mph - N/A   Clear
9:50 PM 53.6 °F - 28.4 °F 38% 30.18 in 10.0 mi NW 4.6 mph - N/A   Clear
10:05 PM 53.6 °F - 30.2 °F 41% 30.18 in 10.0 mi NNW 3.5 mph - N/A   Clear
10:29 PM 50.0 °F - 28.4 °F 43% 30.17 in 10.0 mi NNE 5.8 mph - N/A   Scattered Clouds
10:45 PM 50.0 °F - 28.4 °F 43% 30.18 in 10.0 mi NNE 8.1 mph - N/A   Scattered Clouds
11:05 PM 48.2 °F - 26.6 °F 43% 30.18 in 10.0 mi SW 3.5 mph - N/A   Clear
11:25 PM 46.4 °F - 26.6 °F 46% 30.18 in 10.0 mi Calm Calm - N/A   Clear
11:45 PM 46.4 °F 42.4 °F 26.6 °F 46% 30.17 in 10.0 mi North 8.1 mph - N/A   Clear